Buger, Spain

12:51 AM CEST on October 20, 2017 (GMT +0200)
Buger

Weather History for 08306 - November, 2013

Change the Weather History Date:

Monday, November 11, 2013

  Actual Average Record
Temperature  
Mean Temperature 64 °F -  
Max Temperature 71 °F 62 °F - ()
Min Temperature 57 °F 44 °F - ()
Degree Days  
Heating Degree Days 1    
Growing Degree Days 14 (Base 50)    
Moisture  
Dew Point 49 °F    
Average Humidity 60    
Maximum Humidity 77    
Minimum Humidity 26    
Precipitation  
Precipitation 0.00 in 0.06 in - ()
Sea Level Pressure  
Sea Level Pressure 30.09 in    
Wind  
Wind Speed 6 mph ()    
Max Wind Speed 14 mph    
Max Gust Speed 20 mph    
Visibility 6.9 miles    
Events      
T = Trace of Precipitation, MM = Missing Value Source: Averaged Metar Reports

Daily Weather History Graph

Daily Weather History Graph

Search for Another Location

Airport or City:

Trip Planner

Search our weather history database for the weather conditions in past years. The results will help you decide how hot, cold, wet, or windy it might be!

Date:

Astronomy

Nov. 11, 2013 Rise Set
Actual Time 7:28 AM CET 5:37 PM CET
Civil Twilight 7:00 AM CET 6:05 PM CET
Nautical Twilight 6:27 AM CET 6:37 PM CET
Astronomical Twilight 5:56 AM CET 7:09 PM CET
Moon 2:07 PM CET (11/11) 12:58 AM CET (11/11)
Length of Visible Light 11h 05m
Length of Day
10h 08m
Waxing Gibbous, 63% of the Moon is Illuminated
Nov 11
Waxing Gibbous
Nov 17
Full
Nov 25
Last Quarter
Dec 3
New
Dec 9
First Quarter

Hourly Weather History & Observations

Time (CET) Temp. Dew Point Humidity Pressure Visibility Wind Dir Wind Speed Gust Speed Precip Events Conditions
12:00 AM 66.2 °F 53.6 °F 64% 30.06 in 6.2 mi NW 9.2 mph - N/A   Partly Cloudy
12:30 AM 66.2 °F 53.6 °F 64% 30.06 in 6.2 mi NNW 5.8 mph - N/A   Partly Cloudy
1:00 AM 64 °F 52 °F 57% 30.08 in 12 mi North 2.3 mph - -   Scattered Clouds
1:00 AM 64.4 °F 53.6 °F 68% 30.06 in 6.2 mi Calm Calm - N/A   Partly Cloudy
1:30 AM 64.4 °F 53.6 °F 68% 30.06 in 6.2 mi ENE 11.5 mph - N/A   Partly Cloudy
2:00 AM 62.6 °F 53.6 °F 72% 30.09 in 6.2 mi ENE 9.2 mph - N/A   Partly Cloudy
2:30 AM 62.6 °F 53.6 °F 72% 30.09 in 6.2 mi ENE 10.4 mph - N/A   Partly Cloudy
3:00 AM 62.6 °F 53.6 °F 72% 30.09 in 6.2 mi ENE 12.7 mph - N/A   Partly Cloudy
3:30 AM 60.8 °F 51.8 °F 72% 30.09 in 6.2 mi ENE 12.7 mph - N/A   Partly Cloudy
4:00 AM 60.8 °F 51.8 °F 72% 30.09 in 6.2 mi ENE 10.4 mph - N/A   Partly Cloudy
4:30 AM 60.8 °F 51.8 °F 72% 30.09 in 6.2 mi ENE 9.2 mph - N/A   Scattered Clouds
5:00 AM 60.8 °F 51.8 °F 72% 30.09 in 6.2 mi NE 6.9 mph - N/A   Scattered Clouds
5:30 AM 60.8 °F 51.8 °F 72% 30.09 in 6.2 mi NE 4.6 mph - N/A   Scattered Clouds
6:00 AM 60.8 °F 51.8 °F 72% 30.09 in 6.2 mi NE 5.8 mph - N/A   Scattered Clouds
6:30 AM 60.8 °F 51.8 °F 72% 30.09 in 6.2 mi Variable 2.3 mph - N/A   Scattered Clouds
7:00 AM 61 °F 50 °F 57% 30.10 in 16 mi NNE 4.6 mph - -   Mostly Cloudy
7:00 AM 60.8 °F 50.0 °F 68% 30.09 in 6.2 mi NE 8.1 mph - N/A   Scattered Clouds
7:30 AM 60.8 °F 48.2 °F 63% 30.09 in 6.2 mi NE 8.1 mph - N/A   Scattered Clouds
8:00 AM 60.8 °F 46.4 °F 59% 30.09 in 6.2 mi ENE 4.6 mph - N/A   Partly Cloudy
8:30 AM 60.8 °F 46.4 °F 59% 30.09 in 6.2 mi ENE 3.5 mph - N/A   Partly Cloudy
9:00 AM 60.8 °F 46.4 °F 59% 30.12 in 6.2 mi ENE 5.8 mph - N/A   Scattered Clouds
9:30 AM 62.6 °F 44.6 °F 52% 30.12 in 6.2 mi NE 8.1 mph - N/A   Scattered Clouds
10:00 AM 64.4 °F 44.6 °F 49% 30.12 in 6.2 mi ENE 8.1 mph - N/A   Scattered Clouds
10:30 AM 64.4 °F 44.6 °F 49% 30.12 in 6.2 mi ENE 4.6 mph - N/A   Scattered Clouds
11:00 AM 66.2 °F 44.6 °F 46% 30.12 in 6.2 mi NNE 3.5 mph - N/A   Scattered Clouds
11:30 AM 66.2 °F 44.6 °F 46% 30.12 in 6.2 mi North 3.5 mph 19.6 mph N/A   Scattered Clouds
12:00 PM 68.0 °F 46.4 °F 46% 30.12 in 6.2 mi NE 3.5 mph - N/A   Scattered Clouds
12:30 PM 68.0 °F 48.2 °F 49% 30.09 in 6.2 mi North 4.6 mph - N/A   Scattered Clouds
1:00 PM 70 °F 49 °F 35% 30.08 in 19 mi SW 8.1 mph - -   Partly Cloudy
1:00 PM 68.0 °F 50.0 °F 52% 30.09 in 6.2 mi North 4.6 mph - N/A   Scattered Clouds
1:30 PM 68.0 °F 50.0 °F 52% 30.06 in 6.2 mi WSW 6.9 mph - N/A   Partly Cloudy
2:00 PM 68.0 °F 50.0 °F 52% 30.06 in 6.2 mi WSW 9.2 mph - N/A   Partly Cloudy
2:30 PM 68.0 °F 51.8 °F 56% 30.06 in 6.2 mi WSW 10.4 mph - N/A   Partly Cloudy
3:00 PM 68.0 °F 51.8 °F 56% 30.06 in 6.2 mi SW 11.5 mph - N/A   Scattered Clouds
3:30 PM 68.0 °F 51.8 °F 56% 30.06 in 6.2 mi WSW 6.9 mph - N/A   Scattered Clouds
4:00 PM 69.8 °F 51.8 °F 53% 30.04 in 6.2 mi SW 5.8 mph - N/A   Partly Cloudy
4:30 PM 68.0 °F 51.8 °F 56% 30.04 in 6.2 mi WNW 4.6 mph - N/A   Partly Cloudy
5:00 PM 68.0 °F 51.8 °F 56% 30.06 in 6.2 mi NNW 4.6 mph - N/A   Partly Cloudy
5:30 PM 64.4 °F 51.8 °F 64% 30.06 in 6.2 mi NW 3.5 mph - N/A   Partly Cloudy
6:00 PM 64.4 °F 51.8 °F 64% 30.06 in 6.2 mi ESE 3.5 mph - N/A   Partly Cloudy
6:30 PM 64.4 °F 50.0 °F 59% 30.09 in 6.2 mi Variable 1.2 mph - N/A   Partly Cloudy
7:00 PM 61 °F 49 °F 55% 30.10 in 16 mi Calm Calm - -   Scattered Clouds
7:00 PM 59.0 °F 50.0 °F 72% 30.09 in 6.2 mi Calm Calm - N/A   Partly Cloudy
7:30 PM 59.0 °F 48.2 °F 67% 30.09 in 6.2 mi Variable 1.2 mph - N/A   Partly Cloudy
8:00 PM 59.0 °F 48.2 °F 67% 30.09 in 6.2 mi Calm Calm - N/A   Partly Cloudy
8:30 PM 57.2 °F 48.2 °F 72% 30.09 in 6.2 mi North 5.8 mph - N/A   Partly Cloudy
9:00 PM 57.2 °F 50.0 °F 77% 30.09 in 6.2 mi NNW 1.2 mph - N/A   Scattered Clouds
9:30 PM 59.0 °F 50.0 °F 72% 30.12 in 6.2 mi NNW 3.5 mph - N/A   Scattered Clouds
10:00 PM 60.8 °F 48.2 °F 63% 30.12 in 6.2 mi Variable 2.3 mph - N/A   Scattered Clouds
10:30 PM 60.8 °F 44.6 °F 55% 30.12 in 6.2 mi NE 9.2 mph - N/A   Scattered Clouds
11:00 PM 62.6 °F 35.6 °F 37% 30.12 in 6.2 mi NE 13.8 mph - N/A   Scattered Clouds
11:30 PM 62.6 °F 26.6 °F 26% 30.12 in 6.2 mi NE 8.1 mph - N/A   Scattered Clouds